Regional Weather Roundup
Issued by NWS Boston, MA

Home | Current Version | Previous Version | Text Only | Print | Product List | Glossary On
Versions: 1 2 3 4 5 6 7 8 9 10 11 12 13 14 15 16 17 18 19 20 21 22 23 24 25 26 27 28
000
ASUS41 KBOX 280810
RWRBOX

REGIONAL WEATHER ROUNDUP
NATIONAL WEATHER SERVICE TAUNTON MA
400 AM EDT WED JUN 28 2017

NOTE:  "FAIR" INDICATES FEW OR NO CLOUDS BELOW 12,000 FEET WITH NO
SIGNIFICANT WEATHER AND/OR OBSTRUCTIONS TO VISIBILITY.

MAZALL-280900-
EASTERN MASSACHUSETTS

CITY           SKY/WX    TMP DP  RH WIND       PRES   REMARKS
BOSTON         PTCLDY    58  52  80 W6        29.99R
BEVERLY        PTCLDY    53  51  93 CALM      29.97R
LAWRENCE       CLEAR     55  51  86 CALM      29.99R
BEDFORD        CLEAR     51  48  89 SW3       29.97R
BLUE HILL        N/A     53  50  89 MISG      29.98R
NORWOOD        PTCLDY    51  50  96 CALM      29.99R
MARSHFIELD     MOCLDY    55  54  94 W3        29.98S
PLYMOUTH       PTCLDY    55  50  83 SW3       29.99S
TAUNTON        PTCLDY    50  48  93 CALM      29.99R
NEW BEDFORD    CLEAR     54  51  90 NW3       29.98S
$$

MAZALL-280900-
CAPE COD AND THE ISLANDS

CITY           SKY/WX    TMP DP  RH WIND       PRES   REMARKS
FALMOUTH       NOT AVBL
HYANNIS        CLOUDY    61  49  64 CALM      29.98R
CHATHAM        CLOUDY    60  55  83 CALM      30.00R
PROVINCETOWN   CLOUDY    58  53  84 W10       29.98S
NANTUCKET      CLOUDY    62  53  72 NW7       29.99R
MARTHAS VNYRD  CLOUDY    54  49  83 CALM      30.00R
$$

MAZALL-280900-
CENTRAL AND WESTERN MASSACHUSETTS

CITY           SKY/WX    TMP DP  RH WIND       PRES   REMARKS
WORCESTER      CLEAR     51  48  89 W9        30.00R
FITCHBURG      CLEAR     54  50  86 VRB3      29.99S
ORANGE         FOG       48  48 100 CALM      30.00S VSB 1/4
SPRINGFIELD    FOG       48  48 100 CALM      30.00S VSB 1
WESTFIELD      LGT RAIN  47  47 100 CALM        N/A
NORTH ADAMS    CLOUDY    51  50  96 CALM      30.02S
PITTSFIELD     CLOUDY    51  48  89 SW7       30.01S
$$

RIZALL-280900-
RHODE ISLAND

CITY           SKY/WX    TMP DP  RH WIND       PRES   REMARKS
PROVIDENCE     PTCLDY    56  53  90 W6        30.00S
NEWPORT        PTCLDY    56  52  86 NW3       30.00S
BLOCK ISLAND   CLEAR     57  51  80 W3        30.02S
WESTERLY       CLEAR     55  52  89 CALM      30.02R
$$

CTZALL-280900-
CONNECTICUT

CITY           SKY/WX    TMP DP  RH WIND       PRES   REMARKS
BRADLEY INTL   PTCLDY    51  49  92 CALM      30.02R
HARTFORD       MOCLDY    54  54 100 CALM      30.03R FOG
BRIDGEPORT     CLEAR     61  52  72 W5        30.03R
DANBURY        PTCLDY    52  51  97 W3        30.05
GROTON         CLEAR     54  52  93 CALM      30.01R
NEW HAVEN      CLEAR     54  51  90 CALM      30.03R
CHESTER        FAIR      55  48  76 CALM      30.03R
MERIDEN        PTCLDY    50  49  96 CALM      30.03R
WILLIMANTIC    MOCLDY    52  50  93 CALM      30.03R FOG
OXFORD         CLEAR     52  45  76 NW3       30.05R
$$

MEZ002-015-021-024-NHZ003-005-008-011-012-014-VTZ005-008-280900-
NORTHERN NEW ENGLAND

CITY           SKY/WX    TMP DP  RH WIND       PRES   REMARKS
PORTLAND ME    PTCLDY    52  51  97 W3        29.92S
BANGOR ME      CLOUDY    55  55 100 SW3       29.91S
CONCORD NH     PTCLDY    46  44  93 CALM      29.96S
MANCHESTER NH  PTCLDY    52  48  86 S3        29.95S
NASHUA NH      CLEAR     51  49  92 CALM        N/A
PORTSMOUTH NH  PTCLDY    54  51  89 W7        29.94R
JAFFREY NH     CLEAR     50  50 100 SW5       29.99S
KEENE NH       FOG       47  47 100 CALM      30.00S VSB 1/4
BURLINGTON VT  LGT RAIN  55  53  93 S5        29.96R
MT. WASHINGTON LGT RAIN  36  36 100 NW37        N/A  VSB 0   WCI  21
$$

NYZ052-076-280900-
EASTERN NEW YORK

CITY           SKY/WX    TMP DP  RH WIND       PRES   REMARKS
ALBANY         PTCLDY    55  51  86 CALM      30.03R
NEW YORK CITY  CLEAR     65  52  62 NW12      30.05R
$$

ANZALL-280900-
MARINE OBSERVATIONS

STATION/POSITION TIME  TEMP    WIND        PRES    VSBY  WAVE
                       AIR SEA DIR/SP/G                  HT/PER
                 (UTC) (F)     (DEG/KT/KT) (MB)    (MI)  (FT/S)
BOSTON BUOY      0650   59 60  260/ 12/ 14 1013.9          1/ 4
BUZZARDS BAY     0700   62     310/  6/  7 1016.2R
NANTUCKET SOUND  0750      67              1015.3R         1/ 3
MASS BAY-STELLWA 0704   59 60  280/ 14/ 16 1013.4R         2/ 8
ISLE OF SHOALS   0700   56     250/ 10/ 11 1013.7S
S OF BLOCK IS    0755      64                N/A           2/ 4
$$

......................KEY.........................
  SKY/WX - SKY CONDITION/PRESENT WEATHER
  TMP    - TEMPERATURE IN FAHRENHEIT
  DWPT   - DEWPOINT IN FAHRENHEIT
  RH     - RELATIVE HUMIDITY IN PERCENT
  WIND   - DIRECTION AND SPEED IN MPH
  PRES   - MEAN SEA LEVEL PRESSURE IN INCHES OF HG
  WCI    - WIND CHILL INDEX
  VSB    - VISIBILITY IN MILES
  HX     - HEAT INDEX
  TC     - TEMPERATURE IN CELSIUS
  VRB    - VARIABLE WIND DIRECTION
  N/A    - NOT AVAILABLE




USA.gov is the U.S. government's official web portal to all federal, state and local government web resources and services.